Location: Newark
(34.3481°N, 134.0494°E)
Time: 00:41:10
(UTC+00:00)

Explorer 11/Cluster Stage 4 - All Passes

Search period start: 21 January 2020 00:00
Search period end: 31 January 2020 00:00
Orbit: 467 x 1259 km, 28.8° (Epoch: 20 January)

Date Brightness Start Highest point End Pass type
(mag) Time Alt. Az. Time Alt. Az. Time Alt. Az.
21 Jan - 04:05:36 10° S 04:08:57 13° SSE 04:12:10 10° SE daylight
21 Jan - 05:50:53 10° SW 05:57:32 31° SSE 06:03:22 10° ESE daylight
21 Jan - 07:39:18 10° WSW 07:46:16 48° S 07:51:56 10° E daylight
21 Jan - 09:28:40 10° W 09:34:48 47° S 09:39:42 10° ESE visible
21 Jan - 11:18:31 10° WSW 11:22:49 24° SSW 11:26:27 10° SSE visible
22 Jan - 03:53:32 10° S 03:58:01 16° SSE 04:02:19 10° ESE daylight
22 Jan - 05:39:36 10° SW 05:46:39 35° SSE 05:52:52 10° E daylight
22 Jan - 07:28:14 10° WSW 07:35:27 51° S 07:41:22 10° E daylight
22 Jan - 09:17:42 10° W 09:24:03 47° S 09:29:08 10° ESE visible
22 Jan - 11:07:44 10° WSW 11:12:03 23° SSW 11:15:43 10° SSE visible
23 Jan - 03:41:47 10° SSW 03:47:03 19° SSE 03:52:08 10° ESE daylight
23 Jan - 05:28:23 10° SW 05:35:45 38° SSE 05:42:17 10° E daylight
23 Jan - 07:17:10 10° WSW 07:24:37 54° S 07:30:47 10° ESE daylight
23 Jan - 09:06:44 10° W 09:13:16 46° SSW 09:18:32 10° ESE visible
23 Jan - 10:56:58 10° WSW 11:01:15 21° SSW 11:04:56 10° SSE visible
24 Jan - 03:30:14 10° SSW 03:36:04 21° SSE 03:41:46 10° ESE daylight
24 Jan - 05:17:13 10° SW 05:24:48 42° SSE 05:31:39 10° E daylight
24 Jan - 07:06:08 10° WSW 07:13:46 56° S 07:20:10 10° ESE daylight
24 Jan - 08:55:45 10° W 09:02:28 44° SSW 09:07:55 10° ESE visible
24 Jan - 10:46:13 10° WSW 10:50:26 19° SSW 10:54:06 10° SSE visible
25 Jan - 03:18:50 10° SSW 03:25:05 24° SSE 03:31:16 10° ESE daylight
25 Jan - 05:06:07 10° SW 05:13:52 46° SSE 05:20:59 10° E daylight
25 Jan - 06:55:06 10° WSW 07:02:53 57° S 07:09:31 10° ESE daylight
25 Jan - 08:44:47 10° W 08:51:37 43° SSW 08:57:15 10° SE visible
25 Jan - 10:35:30 10° WSW 10:39:35 18° SSW 10:43:10 10° SSE visible
26 Jan - 03:07:32 10° SSW 03:14:05 27° SSE 03:20:40 10° E daylight
26 Jan - 04:55:03 10° WSW 05:02:56 49° SSE 05:10:16 10° E daylight
26 Jan - 06:44:06 10° WSW 06:52:00 57° S 06:58:50 10° ESE daylight
26 Jan - 08:33:49 10° W 08:40:46 41° SSW 08:46:32 10° SE daylight
26 Jan - 10:24:51 10° WSW 10:28:43 16° SSW 10:32:10 10° S visible
27 Jan - 01:13:39 10° SSE 01:14:48 10° SE 01:15:59 10° SE daylight
27 Jan - 02:56:20 10° SSW 03:03:05 30° SSE 03:09:58 10° E daylight
27 Jan - 04:44:02 10° WSW 04:51:58 52° S 04:59:31 10° E daylight
27 Jan - 06:33:07 10° W 06:41:06 57° S 06:48:08 10° ESE daylight
27 Jan - 08:22:52 10° W 08:29:52 39° SSW 08:35:48 10° SE daylight
27 Jan - 10:14:16 10° WSW 10:17:49 15° SSW 10:21:02 10° S visible
28 Jan - 01:01:00 10° SSE 01:03:49 12° SE 01:06:43 10° ESE daylight
28 Jan - 02:45:13 10° SW 02:52:05 33° SSE 02:59:14 10° E daylight
28 Jan - 04:33:03 10° WSW 04:41:01 54° S 04:48:44 10° E daylight
28 Jan - 06:22:09 10° W 06:30:11 57° S 06:37:23 10° ESE daylight
28 Jan - 08:11:56 10° W 08:18:57 36° SSW 08:25:00 10° SE daylight
28 Jan - 10:03:49 10° WSW 10:06:54 13° SW 10:09:44 10° S visible
29 Jan - 00:49:12 10° S 00:52:49 14° SE 00:56:37 10° ESE daylight
29 Jan - 02:34:10 10° SW 02:41:05 36° SSE 02:48:26 10° E daylight
29 Jan - 04:22:07 10° WSW 04:30:03 56° S 04:37:55 10° E daylight
29 Jan - 06:11:12 10° W 06:19:15 56° S 06:26:36 10° ESE daylight
29 Jan - 08:01:02 10° W 08:08:01 34° SSW 08:14:09 10° SE daylight
29 Jan - 09:53:37 10° SW 09:55:57 12° SW 09:58:12 10° SSW visible
30 Jan - 00:37:44 10° S 00:41:50 16° SSE 00:46:14 10° ESE daylight
30 Jan - 02:23:12 10° SW 02:30:06 39° SSE 02:37:35 10° E daylight
30 Jan - 04:11:13 10° WSW 04:19:06 58° S 04:27:04 10° E daylight
30 Jan - 06:00:17 10° W 06:08:18 54° S 06:15:47 10° ESE daylight
30 Jan - 07:50:10 10° W 07:57:03 32° SSW 08:03:13 10° SE daylight
30 Jan - 09:44:09 10° SW 09:45:00 10° SW 09:45:51 10° SSW visible
